Printer-friendly version

IAU Minor Planet Center

Minor Planet Center

MPEC 2007-R35 : 2006 UY64

The following Minor Planet Electronic Circular may be linked-to from your own Web pages, but must not otherwise be redistributed electronically.


Read MPEC 2007-R34 Read MPEC 2007-R36


M.P.E.C. 2007-R35                                Issued 2007 Sept.  9, 15:38 UT

     The Minor Planet Electronic Circulars contain information on unusual
         minor planets and routine data on comets.  They are published
   on behalf of Commission 20 of the International Astronomical Union by the
          Minor Planet Center, Smithsonian Astrophysical Observatory,
                          Cambridge, MA 02138, U.S.A.

             Prepared using the Tamkin Foundation Computer Network

                              MPC@CFA.HARVARD.EDU
          URL http://www.cfa.harvard.edu/iau/mpc.html  ISSN 1523-6714

                                   2006 UY64

                           Revision to MPEC 2006-U59

Additional Observations:
     K06U64Y  C2007 09 08.11758 06 03 17.73 +13 04 32.3                 ER035204
     K06U64Y  C2007 09 08.13204 06 03 19.84 +13 05 03.7          20.5 R ER035204
     K06U64Y  C2007 09 09.11521 06 05 47.40 +13 40 21.2                 ER035204
     K06U64Y  C2007 09 09.12550 06 05 48.90 +13 40 43.4          20.5 R ER035204

Observer details:
204 Schiaparelli Observatory.  Observers L. Buzzi, F. Luppi.  Measurer
    L. Buzzi.  0.60-m f/4.64 reflector + CCD.

First and last observations above in comparison with prediction:
Residuals in seconds of arc, reference and Delta-T
070908 204  0.1-  0.9-    070909 204  0.4-  1.1-    MPO116358   +0.00030 day

Orbital elements:
2006 UY64                                                Earth MOID = 0.0542 AU
Epoch 2007 Oct. 27.0 TT = JDT 2454400.5                 MPC
M 175.28688              (2000.0)            P               Q
n   1.09628598     Peri.  210.85025     -0.50129145     +0.83512598
a   0.9315085      Node    30.83877     -0.67609450     -0.21472657
e   0.1575544      Incl.   26.21315     -0.54000288     -0.50641593
P   0.90           H   19.5           G   0.15           U   3
Residuals in seconds of arc
061025 E12  0.0   0.0     061026 151  0.1-  0.2+    061105 673  0.2+  0.2-
061025 E12  0.0   0.2-    061026 151  0.1-  0.0     061105 673  0.2+  0.4-
061025 E12  0.0   0.0     061026 151  0.1-  0.1-    061105 673  0.1+  0.7-
061025 E12  0.2+  0.1-    061026 151  0.0   0.2+    061105 673  0.1-  0.2-
061025 E12  0.1-  0.1-    061026 151  0.2-  0.4+    061113 A53  0.3-  0.5+
061025 E12  0.2-  0.0     061026 151  0.1-  0.6+    061113 A53  0.5+  0.0
061025 E12  0.1+  0.2+    061026 151  0.1+  0.7+    061113 A53  0.1+  1.0+
061025 474  0.1+  0.2+    061027 F84  0.1-  0.2+    061117 711  0.0   0.2+
061025 474  0.2+  0.1+    061027 F84  0.2+  0.1+    061117 711  0.0   0.2+
061025 474  0.0   0.2+    061027 E12  0.0   0.2-    061117 711  0.0   0.4+
061025 E12  0.3+  0.1-    061027 E12  0.1+  0.1-    061122 703  0.5-  0.4+
061025 E12  0.0   0.0     061028 448  0.3+  0.1-    061122 703  0.9-  0.0
061025 E12  0.3+  0.0     061028 448  0.1+  0.1-    061122 703  0.5-  0.0
061025 E12  0.0   0.2-    061028 448  0.3+  0.0     061126 215  0.5-  0.5-
061025 E12  0.2-  0.4-    061028 204  0.0   0.4-    061126 215  0.3-  0.5-
061025 151  0.4-  0.4+    061028 204  0.1-  0.1-    061126 215  0.2-  0.4-
061025 151  0.2-  0.2+    061028 204  0.0   0.0     061127 448  0.4+  0.4-
061025 151  0.1+  0.7+    061028 204  0.1+  0.0     061127 448  0.0   0.8-
061025 246  0.0   0.1+    061028 204  0.2-  0.5-    061204 448  0.3-  0.9-
061025 246  0.1+  0.0     061029 H51  0.2-  0.3-    061204 448  0.4+  0.9-
061025 246  0.0   0.3+    061029 H51  0.6-  1.1+    061204 448  0.2+  0.2-
061025 246  0.2+  0.3-    061029 H51  0.5-  0.1+    061211 448  0.4-  0.1-
061025 246  0.0   0.7-    061029 H51 (0.8+  4.0-)   061211 448  1.0-  0.1-
061025 246  0.1-  0.6-    061029 H51  0.7-  1.1+    061211 448  0.3-  0.0
061025 A99 (2.5+  1.1-)   061029 H51 (0.1+  2.1-)   061212 704  0.8+  0.5+
061025 A99 (0.2-  2.3-)   061029 H51  0.0   0.3-    061212 704  1.3+  0.3+
061025 A99 (1.2+  2.6+)   061029 E12  0.0   0.2-    061212 704  0.5+  0.9+
061025 A99 (0.2+  2.0-)   061029 E12  0.1+  0.3-    061212 704  0.9+  0.3+
061025 A99 (0.6-  1.5+)   061030 151  0.0   0.6-    061213 704 (0.2-  1.6+)
061025 A99  0.3-  1.4+    061030 151  0.1-  0.2-    061213 704  1.3+  1.3+
061025 A99 (0.9+  3.2+)   061030 151  0.3-  0.4+    061213 704  0.8-  0.6+
061025 A99 (1.6+  0.5-)   061103 143  0.2+  0.7+    061213 704  0.5+  0.1+
061025 A99 (2.0-  0.3-)   061103 143  0.9+  0.9+    061225 448  0.3-  0.8-
061026 H06  0.2+  0.5-    061103 143  0.7+  0.8+    061225 448  0.2+  1.0-
061026 H06  0.2-  0.0     061103 130  0.0   0.0     061225 448 (1.7+  1.2-)
061026 H06  0.2-  0.4+    061103 130  0.2+  0.2-    070225 696  0.4-  0.3+
061026 H06  0.1+  0.2-    061103 130  0.3-  0.3-    070225 696  0.4-  0.2+
061026 F84  0.1-  0.2+    061103 130  0.1-  0.2+    070908 204  0.1+  0.0
061026 F84  0.1+  0.1+    061105 448  0.2-  0.2-    070908 204  0.1+  0.2+
061026 A89  0.4-  0.8-    061105 448  0.1+  0.1-    070909 204  0.2+  0.1-
061026 A89  0.5+  0.4-    061105 448  0.1-  0.0     070909 204  0.2-  0.2-
061026 A89  0.8+  0.6-    061105 448  0.2-  0.1-
061026 A89  0.0   1.1-    061105 448  0.0   0.1-

Ephemeris:
2006 UY64                a,e,i = 0.93, 0.16, 26                  q = 0.7847
Date    TT    R. A. (2000) Decl.     Delta      r     Elong.  Phase     V
2007 09 07    06 00.53   +12 24.9    0.598    1.021    74.1    71.7    20.9
2007 09 17    06 26.72   +18 33.6    0.566    1.040    77.3    70.6    20.8
2007 09 27    06 57.12   +25 11.1    0.533    1.055    80.5    69.6    20.7
2007 10 07    07 33.32   +32 11.9    0.503    1.067    83.4    68.6    20.6
2007 10 17    08 17.39   +39 18.3    0.479    1.074    85.9    67.7    20.4
2007 10 27    09 11.73   +45 53.9    0.462    1.078    87.5    67.1    20.4
2007 11 06    10 17.65   +51 06.3    0.455    1.078    88.2    66.9    20.3
2007 11 16    11 32.02   +54 06.9    0.457    1.073    87.8    67.0    20.3
2007 11 26    12 46.42   +54 38.5    0.465    1.065    86.5    67.7    20.4
2007 12 06    13 52.39   +53 08.0    0.477    1.053    84.5    68.7    20.4
2007 12 16    14 46.55   +50 20.5    0.488    1.037    82.2    70.0    20.5
2007 12 26    15 30.13   +46 48.4    0.496    1.018    79.6    71.8    20.5
2008 01 05    16 06.01   +42 46.1    0.499    0.996    76.8    74.0    20.6
2008 01 15    16 36.88   +38 13.8    0.496    0.971    73.9    76.7    20.6
2008 01 25    17 05.15   +32 59.1    0.485    0.944    70.9    80.1    20.6
2008 02 04    17 33.16   +26 43.7    0.468    0.916    67.6    84.2    20.6
2008 02 14    18 03.14   +19 07.3    0.449    0.888    64.0    88.9    20.6
2008 02 24    18 37.42   +09 56.9    0.434    0.860    60.2    93.9    20.7

Gareth V. Williams           (C) Copyright 2007 MPC           M.P.E.C. 2007-R35

Read MPEC 2007-R34 Read MPEC 2007-R36


Our Web policy. Index to the CBAT/MPC/ICQ pages.


Valid HTML 4.01!